Satellite-Ground Cal/Val Region Overpasses Predictions

Prediction of Satellite NPP Overpassing Cal/Val Region: PacNW

Region Location: (Latitude: 10.00, Longitude: 139.50) to (Latitude: 22.70, Longitude: 165.60).

Table of predicted overpasses for the next 14.0 days since TLE Epoch: 12/17/2022
Interval Starting Time Starting Location Ending Time Ending Location
1 12/17/2022 02:21:51 ( 12.28, 164.17) 12/17/2022 02:24:48 ( 22.67, 161.67)
2 12/17/2022 14:53:07 ( 22.64, 161.93) 12/17/2022 14:56:42 ( 10.02, 158.92)
3 12/18/2022 03:43:43 ( 10.05, 144.06) 12/18/2022 03:47:18 ( 22.68, 141.05)
4 12/18/2022 14:35:22 ( 18.24, 165.60) 12/18/2022 14:37:42 ( 10.02, 163.67)
5 12/18/2022 16:15:36 ( 22.70, 141.32) 12/18/2022 16:17:43 ( 15.25, 139.51)
6 12/19/2022 03:24:41 ( 10.00, 148.83) 12/19/2022 03:28:17 ( 22.68, 145.81)
7 12/19/2022 15:56:35 ( 22.69, 146.07) 12/19/2022 16:00:11 ( 10.01, 143.05)
8 12/20/2022 03:05:41 ( 10.01, 153.58) 12/20/2022 03:09:17 ( 22.69, 150.56)
9 12/20/2022 15:37:35 ( 22.69, 150.83) 12/20/2022 15:41:11 ( 10.01, 147.80)
10 12/21/2022 02:46:40 ( 10.01, 158.33) 12/21/2022 02:50:16 ( 22.69, 155.31)
11 12/21/2022 15:18:34 ( 22.68, 155.58) 12/21/2022 15:22:10 ( 10.00, 152.56)
12 12/22/2022 02:27:40 ( 10.02, 163.09) 12/22/2022 02:31:15 ( 22.64, 160.08)
13 12/22/2022 14:59:34 ( 22.67, 160.33) 12/22/2022 15:03:09 ( 10.05, 157.32)
14 12/23/2022 02:11:23 ( 19.60, 165.59) 12/23/2022 02:12:15 ( 22.65, 164.83)
15 12/23/2022 03:50:09 ( 10.03, 142.46) 12/23/2022 03:53:41 ( 22.48, 139.50)
16 12/23/2022 14:40:33 ( 22.66, 165.08) 12/23/2022 14:44:08 ( 10.04, 162.08)
17 12/23/2022 16:22:03 ( 22.66, 139.71) 12/23/2022 16:22:17 ( 21.84, 139.50)
18 12/24/2022 03:31:09 ( 10.04, 147.22) 12/24/2022 03:34:44 ( 22.66, 144.21)
19 12/24/2022 16:03:03 ( 22.65, 144.46) 12/24/2022 16:06:38 ( 10.03, 141.45)
20 12/25/2022 03:12:09 ( 10.05, 151.97) 12/25/2022 03:15:44 ( 22.67, 148.96)
21 12/25/2022 15:44:01 ( 22.70, 149.23) 12/25/2022 15:47:37 ( 10.02, 146.21)
22 12/26/2022 02:53:07 ( 10.00, 156.74) 12/26/2022 02:56:43 ( 22.68, 153.71)
23 12/26/2022 15:25:01 ( 22.69, 153.98) 12/26/2022 15:28:37 ( 10.01, 150.96)
24 12/27/2022 02:34:07 ( 10.02, 161.49) 12/27/2022 02:37:43 ( 22.70, 158.47)
25 12/27/2022 15:06:00 ( 22.67, 158.73) 12/27/2022 15:09:35 ( 10.06, 155.73)
26 12/28/2022 02:15:54 ( 12.85, 165.59) 12/28/2022 02:18:41 ( 22.65, 163.23)
27 12/28/2022 03:56:36 ( 10.03, 140.87) 12/28/2022 03:58:15 ( 15.85, 139.51)
28 12/28/2022 14:47:00 ( 22.66, 163.48) 12/28/2022 14:50:35 ( 10.04, 160.48)
29 12/29/2022 03:37:36 ( 10.05, 145.62) 12/29/2022 03:41:11 ( 22.67, 142.61)
30 12/29/2022 14:31:07 ( 11.61, 165.59) 12/29/2022 14:31:34 ( 10.03, 165.23)
31 12/29/2022 16:09:29 ( 22.64, 142.86) 12/29/2022 16:13:04 ( 10.03, 139.85)
32 12/30/2022 03:18:34 ( 10.00, 150.38) 12/30/2022 03:22:10 ( 22.68, 147.36)
